Year,Month,Day,Hour,Minute,Value (Times are PST for temperature in C)
2016,02,28,00,00,8.40
2016,02,28,00,01,8.40
2016,02,28,00,02,8.40
2016,02,28,00,03,8.40
2016,02,28,00,04,8.40
2016,02,28,00,05,8.40
2016,02,28,00,06,8.40
2016,02,28,00,07,8.40
2016,02,28,00,08,8.40
2016,02,28,00,09,8.40
2016,02,28,00,10,8.40
2016,02,28,00,11,8.40
2016,02,28,00,12,8.40
2016,02,28,00,13,8.40
2016,02,28,00,14,8.40
2016,02,28,00,15,8.30
2016,02,28,00,16,8.30
2016,02,28,00,17,8.30
2016,02,28,00,18,8.30
2016,02,28,00,19,8.30
2016,02,28,00,20,8.30
2016,02,28,00,21,8.30
2016,02,28,00,22,8.30
2016,02,28,00,23,8.30
2016,02,28,00,24,8.30
2016,02,28,00,25,8.30
2016,02,28,00,26,8.20
2016,02,28,00,27,8.20
2016,02,28,00,28,8.20
2016,02,28,00,29,8.20
2016,02,28,00,30,8.20
2016,02,28,00,31,8.20
2016,02,28,00,32,8.20
2016,02,28,00,33,8.20
2016,02,28,00,34,8.20
2016,02,28,00,35,8.20
2016,02,28,00,36,8.20
2016,02,28,00,37,8.20
2016,02,28,00,38,8.20
2016,02,28,00,39,8.20
2016,02,28,00,40,8.20
2016,02,28,00,41,8.20
2016,02,28,00,42,8.20
2016,02,28,00,43,8.20
2016,02,28,08,12,8.70
2016,02,28,08,13,8.70
2016,02,28,08,14,8.70
2016,02,28,08,15,8.70
2016,02,28,08,16,8.70
2016,02,28,08,17,8.70
2016,02,28,08,18,8.70
2016,02,28,08,19,8.70
2016,02,28,08,20,8.70
2016,02,28,08,21,8.70
2016,02,28,08,22,8.70
2016,02,28,08,55,9.20
2016,02,28,08,56,9.20
2016,02,28,08,57,9.20
2016,02,28,08,58,9.20
2016,02,28,08,59,9.20
2016,02,28,09,00,9.20
2016,02,28,09,01,9.20
2016,02,28,09,02,9.20
2016,02,28,09,03,9.30
2016,02,28,09,04,9.30
2016,02,28,09,05,9.30
2016,02,28,09,06,9.40
2016,02,28,09,07,9.50
2016,02,28,09,08,9.50
2016,02,28,09,09,9.60
2016,02,28,09,10,9.60
2016,02,28,09,11,9.60
2016,02,28,09,12,9.70
2016,02,28,09,13,9.70
2016,02,28,09,14,9.60
2016,02,28,09,15,9.60
2016,02,28,09,16,9.60
2016,02,28,09,17,9.60
2016,02,28,09,18,9.60
2016,02,28,09,19,9.60
2016,02,28,09,20,9.50
2016,02,28,09,21,9.50
2016,02,28,09,22,9.50
2016,02,28,09,23,9.50
2016,02,28,09,24,9.60
2016,02,28,09,25,9.60
2016,02,28,09,26,9.60
2016,02,28,09,27,9.60
2016,02,28,09,28,9.60
2016,02,28,09,29,9.60
2016,02,28,09,30,9.60
2016,02,28,09,31,9.60
2016,02,28,09,32,9.60
2016,02,28,09,33,9.60
2016,02,28,09,34,9.60
2016,02,28,09,35,9.60
2016,02,28,09,36,9.60
2016,02,28,09,37,9.60
2016,02,28,09,38,9.60
2016,02,28,09,39,9.60
2016,02,28,09,40,9.60
2016,02,28,09,41,9.60
2016,02,28,09,42,9.60
2016,02,28,09,43,9.60
2016,02,28,09,44,9.60
2016,02,28,09,45,9.60
2016,02,28,09,46,9.60
2016,02,28,09,47,9.60
2016,02,28,09,48,9.60
2016,02,28,09,49,9.60
2016,02,28,09,50,9.60
2016,02,28,09,51,9.60
2016,02,28,09,52,9.60
2016,02,28,09,53,9.60
2016,02,28,09,54,9.50
2016,02,28,09,55,9.50
2016,02,28,09,56,9.50
2016,02,28,09,57,9.50
2016,02,28,09,58,9.50
2016,02,28,09,59,9.50
2016,02,28,10,00,9.50
2016,02,28,10,01,9.50
2016,02,28,10,02,9.50
2016,02,28,10,03,9.50
2016,02,28,10,04,9.50
2016,02,28,10,05,9.40
2016,02,28,10,06,9.40
2016,02,28,10,07,9.40
2016,02,28,10,08,9.40
2016,02,28,10,09,9.40
2016,02,28,10,10,9.40
2016,02,28,10,11,9.50
2016,02,28,10,12,9.50
2016,02,28,10,13,9.50
2016,02,28,10,14,9.50
2016,02,28,10,15,9.60
2016,02,28,10,16,9.60
2016,02,28,10,17,9.70
2016,02,28,10,18,9.70
2016,02,28,10,19,9.70
2016,02,28,10,20,9.80
2016,02,28,10,21,9.80
2016,02,28,10,22,9.80
2016,02,28,10,23,9.80
2016,02,28,10,24,9.80
2016,02,28,10,25,9.90
2016,02,28,10,26,9.90
2016,02,28,10,27,9.90
2016,02,28,10,28,9.90
2016,02,28,10,29,9.90
2016,02,28,10,30,9.90
2016,02,28,10,31,9.90
2016,02,28,10,32,9.90
2016,02,28,10,33,9.80
2016,02,28,10,34,9.80
2016,02,28,10,35,9.70
2016,02,28,10,36,9.70
2016,02,28,10,37,9.70
2016,02,28,10,38,9.70
2016,02,28,10,39,9.70
2016,02,28,10,40,9.70
2016,02,28,10,41,9.70
2016,02,28,10,42,9.60
2016,02,28,10,43,9.60
2016,02,28,10,44,9.60
2016,02,28,10,45,9.60
2016,02,28,10,46,9.60
2016,02,28,10,47,9.70
2016,02,28,10,48,9.70
2016,02,28,10,49,9.70
2016,02,28,10,50,9.70
2016,02,28,10,51,9.70
2016,02,28,10,52,9.70
2016,02,28,10,53,9.70
2016,02,28,10,54,9.70
2016,02,28,10,55,9.70
2016,02,28,10,56,9.60
2016,02,28,10,57,9.60
2016,02,28,10,58,9.60
2016,02,28,10,59,9.60
2016,02,28,11,00,9.60
2016,02,28,11,01,9.60
2016,02,28,11,02,9.60
2016,02,28,11,03,9.60
2016,02,28,11,04,9.70
2016,02,28,11,05,9.80
2016,02,28,11,06,9.80
2016,02,28,11,07,9.90
2016,02,28,11,08,10.00
2016,02,28,11,09,10.10
2016,02,28,11,10,10.20
2016,02,28,11,11,10.30
2016,02,28,11,12,10.30
2016,02,28,11,13,10.40
2016,02,28,11,14,10.50
2016,02,28,11,15,10.50
2016,02,28,11,16,10.50
2016,02,28,11,17,10.60
2016,02,28,11,18,10.60
2016,02,28,11,19,10.70
2016,02,28,11,20,10.70
2016,02,28,11,21,10.80
2016,02,28,11,22,10.80
2016,02,28,11,23,10.90
2016,02,28,11,24,10.90
2016,02,28,11,25,11.00
2016,02,28,11,26,11.00
2016,02,28,11,27,11.00
2016,02,28,11,28,11.10
2016,02,28,11,29,11.10
2016,02,28,11,30,11.00
2016,02,28,11,31,11.10
2016,02,28,11,32,11.10
2016,02,28,11,33,11.10
2016,02,28,11,34,11.10
2016,02,28,11,35,11.10
2016,02,28,11,36,11.20
2016,02,28,11,37,11.20
2016,02,28,11,38,11.20
2016,02,28,11,39,11.20
2016,02,28,11,40,11.20
2016,02,28,11,41,11.10
2016,02,28,11,42,11.00
2016,02,28,11,43,10.90
2016,02,28,11,44,10.90
2016,02,28,11,45,10.80
2016,02,28,11,46,10.70
2016,02,28,11,47,10.60
2016,02,28,11,48,10.60
2016,02,28,11,49,10.50
2016,02,28,11,50,10.50
2016,02,28,11,51,10.40
2016,02,28,11,52,10.40
2016,02,28,11,53,10.40
2016,02,28,11,54,10.30
2016,02,28,11,55,10.30
2016,02,28,11,56,10.30
2016,02,28,11,57,10.20
2016,02,28,11,58,10.20
2016,02,28,11,59,10.20
2016,02,28,12,00,10.20
2016,02,28,12,01,10.30
2016,02,28,12,02,10.30
2016,02,28,12,03,10.30
2016,02,28,12,04,10.30
2016,02,28,12,05,10.30
2016,02,28,12,06,10.30
2016,02,28,12,07,10.30
2016,02,28,12,08,10.30
2016,02,28,12,09,10.30
2016,02,28,12,10,10.20
2016,02,28,12,11,10.20
2016,02,28,12,12,10.10
2016,02,28,12,13,10.00
2016,02,28,12,14,9.90
2016,02,28,12,15,9.80
2016,02,28,12,16,9.70
2016,02,28,12,17,9.70
2016,02,28,12,18,9.60
2016,02,28,12,19,9.60
2016,02,28,12,20,9.50
2016,02,28,12,21,9.50
2016,02,28,12,22,9.50
2016,02,28,12,23,9.50
2016,02,28,12,24,9.50
2016,02,28,12,25,9.40
2016,02,28,12,26,9.50
2016,02,28,12,27,9.50
2016,02,28,12,28,9.40
2016,02,28,12,29,9.40
2016,02,28,12,30,9.40
2016,02,28,12,31,9.40
2016,02,28,12,32,9.30
2016,02,28,12,33,9.30
2016,02,28,12,34,9.20
2016,02,28,12,35,9.10
2016,02,28,12,36,9.00
2016,02,28,12,37,8.90
2016,02,28,12,38,8.80
2016,02,28,12,39,8.70
2016,02,28,12,40,8.60
2016,02,28,12,41,8.60
2016,02,28,12,42,8.50
2016,02,28,12,43,8.40
2016,02,28,12,44,8.40
2016,02,28,12,45,8.30
2016,02,28,12,46,8.30
2016,02,28,12,47,8.30
2016,02,28,12,48,8.30
2016,02,28,12,49,8.20
2016,02,28,12,50,8.20
2016,02,28,12,51,8.20
2016,02,28,12,52,8.20
2016,02,28,12,53,8.20
2016,02,28,12,54,8.20
2016,02,28,12,55,8.20
2016,02,28,12,56,8.20
2016,02,28,12,57,8.20
2016,02,28,12,58,8.30
2016,02,28,12,59,8.30
2016,02,28,13,00,8.40
2016,02,28,13,01,8.40
2016,02,28,13,02,8.50
2016,02,28,13,03,8.60
2016,02,28,13,04,8.70
2016,02,28,13,05,8.80
2016,02,28,13,06,8.80
2016,02,28,13,07,8.80
2016,02,28,13,08,8.90
2016,02,28,13,09,8.90
2016,02,28,13,10,8.90
2016,02,28,13,11,9.00
2016,02,28,13,12,9.00
2016,02,28,13,13,9.00
2016,02,28,13,14,9.00
2016,02,28,13,15,9.10
2016,02,28,13,16,9.10
2016,02,28,13,17,9.10
2016,02,28,13,18,9.10
2016,02,28,13,19,9.10
2016,02,28,13,20,9.10
2016,02,28,13,21,9.10
2016,02,28,13,22,9.10
2016,02,28,13,23,9.10
2016,02,28,13,24,9.10
2016,02,28,13,25,9.10
2016,02,28,13,26,9.10
2016,02,28,13,27,9.20
2016,02,28,13,28,9.20
2016,02,28,13,29,9.20
2016,02,28,13,30,9.20
2016,02,28,13,31,9.30
2016,02,28,13,32,9.30
2016,02,28,13,33,9.30
2016,02,28,13,34,9.30
2016,02,28,13,35,9.40
2016,02,28,13,36,9.40
2016,02,28,13,37,9.40
2016,02,28,13,38,9.40
2016,02,28,13,39,9.40
2016,02,28,13,40,9.40
2016,02,28,13,41,9.40
2016,02,28,13,42,9.40
2016,02,28,13,43,9.40
2016,02,28,13,44,9.40
2016,02,28,13,45,9.30
2016,02,28,13,46,9.30
2016,02,28,13,47,9.20
2016,02,28,13,48,9.20
2016,02,28,13,49,9.20
2016,02,28,13,50,9.10
2016,02,28,13,51,9.10
2016,02,28,13,52,9.00
2016,02,28,13,53,9.00
2016,02,28,13,54,9.00
2016,02,28,13,55,9.00
2016,02,28,13,56,9.00
2016,02,28,13,57,9.10
2016,02,28,13,58,9.10
2016,02,28,13,59,9.10
2016,02,28,14,00,9.10
2016,02,28,14,01,9.10
2016,02,28,14,02,9.20
2016,02,28,14,03,9.20
2016,02,28,14,04,9.20
2016,02,28,14,05,9.20
2016,02,28,14,06,9.20
2016,02,28,14,07,9.20
2016,02,28,14,08,9.30
2016,02,28,14,09,9.30
2016,02,28,14,10,9.30
2016,02,28,14,11,9.40
2016,02,28,14,12,9.40
2016,02,28,14,13,9.40
2016,02,28,14,14,9.30
2016,02,28,14,15,9.30
2016,02,28,14,16,9.30
2016,02,28,14,17,9.30
2016,02,28,14,18,9.30
2016,02,28,14,19,9.20
2016,02,28,14,20,9.20
2016,02,28,14,21,9.10
2016,02,28,14,22,9.00
2016,02,28,14,23,8.90
2016,02,28,14,24,8.80
2016,02,28,14,25,8.80
2016,02,28,14,26,8.70
2016,02,28,14,27,8.70
2016,02,28,14,28,8.70
2016,02,28,14,29,8.70
2016,02,28,14,30,8.70
2016,02,28,14,31,8.70
2016,02,28,14,32,8.80
2016,02,28,14,33,8.90
2016,02,28,14,34,8.90
2016,02,28,14,35,9.00
2016,02,28,14,36,9.00
2016,02,28,14,37,9.10
2016,02,28,14,38,9.10
2016,02,28,14,39,9.10
2016,02,28,14,40,9.10
2016,02,28,14,41,9.10
2016,02,28,14,42,9.20
2016,02,28,14,43,9.20
2016,02,28,14,44,9.20
2016,02,28,14,45,9.20
2016,02,28,14,46,9.10
2016,02,28,14,47,9.10
2016,02,28,14,48,9.10
2016,02,28,14,49,9.10
2016,02,28,14,50,9.00
2016,02,28,14,51,9.00
2016,02,28,14,52,8.90
2016,02,28,14,53,8.90
2016,02,28,14,54,8.90
2016,02,28,14,55,8.90
2016,02,28,14,56,8.90
2016,02,28,14,57,8.90
2016,02,28,14,58,8.90
2016,02,28,14,59,9.00
2016,02,28,15,00,9.00
2016,02,28,15,01,9.10
2016,02,28,15,02,9.10
2016,02,28,15,03,9.20
2016,02,28,15,04,9.20
2016,02,28,15,05,9.30
2016,02,28,15,06,9.40
2016,02,28,15,07,9.40
2016,02,28,15,08,9.50
2016,02,28,15,09,9.60
2016,02,28,15,10,9.70
2016,02,28,15,11,9.70
2016,02,28,15,12,9.80
2016,02,28,15,13,9.80
2016,02,28,15,14,9.90
2016,02,28,15,15,9.90
2016,02,28,15,16,9.90
2016,02,28,15,17,9.90
2016,02,28,15,18,9.90
2016,02,28,15,19,9.90
2016,02,28,15,20,9.90
2016,02,28,15,21,9.90
2016,02,28,15,22,9.90
2016,02,28,15,23,9.90
2016,02,28,15,24,9.80
2016,02,28,15,25,9.80
2016,02,28,15,26,9.80
2016,02,28,15,27,9.80
2016,02,28,15,28,9.70
2016,02,28,15,29,9.70
2016,02,28,15,30,9.70
2016,02,28,15,31,9.70
2016,02,28,15,32,9.70
2016,02,28,15,33,9.70
2016,02,28,15,34,9.70
2016,02,28,15,35,9.80
2016,02,28,15,36,9.80
2016,02,28,15,37,9.90
2016,02,28,15,38,9.90
2016,02,28,15,39,10.00
2016,02,28,15,40,10.10
2016,02,28,15,41,10.20
2016,02,28,15,42,10.20
2016,02,28,15,43,10.30
2016,02,28,15,44,10.30
2016,02,28,15,45,10.30
2016,02,28,15,46,10.30
2016,02,28,15,47,10.30
2016,02,28,15,48,10.30
2016,02,28,15,49,10.30
2016,02,28,15,50,10.30
2016,02,28,15,51,10.30
2016,02,28,15,52,10.20
2016,02,28,15,53,10.20
2016,02,28,15,54,10.20
2016,02,28,15,55,10.20
2016,02,28,15,56,10.20
2016,02,28,15,57,10.10
2016,02,28,15,58,10.10
2016,02,28,15,59,10.10
2016,02,28,16,00,10.10
2016,02,28,16,01,10.00
2016,02,28,16,02,10.00
2016,02,28,16,03,10.00
2016,02,28,16,04,9.90
2016,02,28,16,05,9.90
2016,02,28,16,06,9.90
2016,02,28,16,07,9.90
2016,02,28,16,08,9.90
2016,02,28,16,09,9.80
2016,02,28,16,10,9.80
2016,02,28,16,11,9.70
2016,02,28,16,12,9.70
2016,02,28,16,13,9.60
2016,02,28,16,14,9.60
2016,02,28,16,15,9.60
2016,02,28,16,16,9.60
2016,02,28,16,17,9.60
2016,02,28,16,18,9.50
2016,02,28,16,19,9.50
2016,02,28,16,20,9.50
2016,02,28,16,21,9.50
2016,02,28,16,22,9.50
2016,02,28,16,23,9.50
2016,02,28,16,24,9.50
2016,02,28,16,25,9.50
2016,02,28,16,26,9.40
2016,02,28,16,27,9.40
2016,02,28,16,28,9.40
2016,02,28,16,29,9.50
2016,02,28,16,30,9.40
2016,02,28,16,31,9.40
2016,02,28,16,32,9.40
2016,02,28,16,33,9.40
2016,02,28,16,34,9.40
2016,02,28,16,35,9.40
2016,02,28,16,36,9.30
2016,02,28,16,37,9.30
2016,02,28,16,38,9.30
2016,02,28,16,39,9.30
2016,02,28,16,40,9.30
2016,02,28,16,41,9.30
2016,02,28,16,42,9.30
2016,02,28,16,43,9.20
2016,02,28,16,44,9.20
2016,02,28,16,45,9.20
2016,02,28,16,46,9.10
2016,02,28,16,47,9.10
2016,02,28,16,48,9.00
2016,02,28,16,49,9.00
2016,02,28,16,50,8.90
2016,02,28,16,51,8.90
2016,02,28,16,52,8.90
2016,02,28,16,53,8.90
2016,02,28,16,54,8.80
2016,02,28,16,55,8.80
2016,02,28,16,56,8.80
2016,02,28,16,57,8.80
2016,02,28,16,58,8.70
2016,02,28,16,59,8.70
2016,02,28,17,00,8.60
2016,02,28,17,01,8.50
2016,02,28,17,02,8.40
2016,02,28,17,03,8.20
2016,02,28,17,04,8.10
2016,02,28,17,05,8.00
2016,02,28,17,06,7.90
2016,02,28,17,07,7.80
2016,02,28,17,08,7.70
2016,02,28,17,09,7.60
2016,02,28,17,10,7.50
2016,02,28,17,11,7.40
2016,02,28,17,12,7.30
2016,02,28,17,13,7.20
2016,02,28,17,14,7.20
2016,02,28,17,15,7.10
2016,02,28,17,16,7.00
2016,02,28,17,17,7.00
2016,02,28,17,18,6.90
2016,02,28,17,19,6.90
2016,02,28,17,20,6.80
2016,02,28,17,21,6.80
2016,02,28,17,22,6.80
2016,02,28,17,23,6.80
2016,02,28,17,24,6.80
2016,02,28,17,25,6.70
2016,02,28,17,26,6.70
2016,02,28,17,27,6.70
2016,02,28,17,28,6.70
2016,02,28,17,29,6.70
2016,02,28,17,30,6.60
2016,02,28,17,31,6.60
2016,02,28,17,32,6.60
2016,02,28,17,33,6.60
2016,02,28,17,34,6.50
2016,02,28,17,35,6.50
2016,02,28,17,36,6.40
2016,02,28,17,37,6.40
2016,02,28,17,38,6.40
2016,02,28,17,39,6.40
2016,02,28,17,40,6.40
2016,02,28,17,41,6.30
2016,02,28,17,42,6.30
2016,02,28,17,43,6.30
2016,02,28,17,44,6.30
2016,02,28,17,45,6.30
2016,02,28,17,46,6.20
2016,02,28,17,47,6.20
2016,02,28,17,48,6.20
2016,02,28,17,49,6.20
2016,02,28,17,50,6.20
2016,02,28,17,51,6.20
2016,02,28,17,52,6.20
2016,02,28,17,53,6.20
2016,02,28,17,54,6.20
2016,02,28,17,55,6.20
2016,02,28,17,56,6.20
2016,02,28,17,57,6.20
2016,02,28,17,58,6.20
2016,02,28,17,59,6.20
2016,02,28,18,00,6.20
